Orbital Elements at Epoch 2459200.5 (2020-Dec-17.0) TDB
Reference: JPL 18 (heliocentric ecliptic J2000)
Element | Value | Uncertainty (1-sigma) | Units |
e | .1071135363299948 | 3.8013e-08 | |
a | 2.41784228694322 | 1.5302e-08 | au |
q | 2.15885864930053 | 9.2037e-08 | au |
i | 2.037447488251411 | 4.1898e-06 | deg |
node | 293.1090654538672 | 0.00012585 | deg |
peri | 349.8481265570652 | 0.00012839 | deg |
M | 234.3392553547719 | 2.9348e-05 | deg |
tp | 2459679.833197692691 (2022-Apr-10.33319769) | 0.00011449 | TDB |
period | 1373.220822911316 3.76 | 1.3036e-05 3.569e-08 | d yr |
n | .2621573995919876 | 2.4886e-09 | deg/d |
Q | 2.676825924585911 | 1.6941e-08 | au |
|
| | Orbit Determination Parameters
Additional Information
|